Regional Weather Roundup
Issued by NWS Northern Indiana

Home | Current Version | Previous Version | Graphics & Text | Print | Product List | Glossary On
Versions: 1 2 3 4 5 6 7 8 9 10 11 12 13 14 15 16 17 18 19 20 21 22 23 24 25 26 27 28 29 30 31 32 33 34 35 36 37 38 39 40 41 42 43 44 45 46 47 48 49 50
000
ASUS43 KIWX 231000
RWRIWX

KIWX WEATHER ROUNDUP
NATIONAL WEATHER SERVICE NORTHERN INDIANA
600 AM EDT SAT MAY 23 2015

NOTE: "FAIR" INDICATES FEW OR NO CLOUDS BELOW 12,000 FEET WITH NO
SIGNIFICANT WEATHER AND/OR OBSTRUCTIONS TO VISIBILITY.

* THESE STATIONS ARE NOT UNDER NWS QUALITY CONTROL. THEY ALSO MAY NOT
  REPORT WEATHER SUCH AS PRECIPITATION OR FOG.

INZ001>027-231100-
NORTHERN INDIANA

CITY           SKY/WX    TMP DP  RH WIND       PRES   REMARKS
GARY*          PTCLDY    52  37  58 SE6       30.32R
SOUTH BEND     PTCLDY    45  36  70 CALM      30.34S
GOSHEN         CLEAR     39  35  86 CALM      30.34R
ANGOLA*        CLEAR     43  37  81 CALM      30.35R
FORT WAYNE     PTCLDY    44  40  85 CALM      30.35R
PERU/GRISSOM   PTCLDY    50  37  59 E5        30.31R

$$
INZ028>050-231100-
CENTRAL INDIANA

CITY           SKY/WX    TMP DP  RH WIND       PRES   REMARKS
LAFAYETTE      MOCLDY    54  39  57 E7        30.30R
KOKOMO*        PTCLDY    50  37  62 E5        30.33R
MUNCIE*        MOCLDY    50  42  74 E3        30.33S
INDIANAPOLIS   CLOUDY    55  44  66 CALM      30.30R

$$
MIZ043>046-050>051-056>058-064>065-071>073-077>080-231100-
SOUTHWEST LOWER MICHIGAN

CITY           SKY/WX    TMP DP  RH WIND       PRES   REMARKS
BATTLE CREEK   CLEAR     44  35  70 S7        30.34S
BENTON HARBOR  CLEAR     44  33  65 SE5       30.33R
COLDWATER*     CLEAR     43  37  81 SE6       30.35R
HILLSDALE*     CLEAR     44  37  75 SE6       30.35R
HOLLAND        CLEAR     44  34  67 SE3       30.33R
GRAND RAPIDS   PTCLDY    42  33  70 SE5       30.33R
KALAMAZOO      CLEAR     43  34  70 S3        30.35R
STURGIS*       CLEAR     43  34  70 CALM      30.34R
THREE RIVERS*  FAIR      40  36  87 CALM      30.35R

$$
OHZ001>008-015>018-024>025-231100-
NORTHWEST OHIO

CITY           SKY/WX    TMP DP  RH WIND       PRES   REMARKS
DEFIANCE       PTCLDY    47  39  74 NE3       30.36R
FINDLAY        CLEAR     47  36  65 E3        30.35R
TOLEDO EXPRESS PTCLDY    42  40  92 CALM      30.36R
TOLEDO METCALF PTCLDY    46  43  89 CALM      30.37R
LIMA           CLEAR     44  37  76 CALM      30.35R

$$
AND FOR LAKE MICHIGAN COASTAL AND OPEN LAKE BUOY OBSERVATIONS

STATION/POSITION TEMP    WIND        PRES    VSBY  WAVE
                 AIR SEA DIR/SP/G                  HT/PER
                 (F)     (DEG/KT/KT) (MB)    (MI)  (FT/S)
CALUMET HARBOR    56     150/  3/  4   N/A
MICHIGAN CITY     54     100/ 10/ 12   N/A
BURNS HARBOR      57     140/  9/ 18 1026.8S
SAINT JOSEPH      50     160/  2/  7 1027.1R
SOUTH LAKE BUOY   42 38  220/  4/  6 1027.5R         0
4 MI NW BRIDGMAN  54 53  180/ 10/ 12   N/A           1/ 2
MICHIGAN CITY     54 51  140/  8/ 10   N/A           1/ 2

$$
&&



USA.gov is the U.S. government's official web portal to all federal, state and local government web resources and services.